This is the latest recevied weather packets stored in our database for station/object KI5QCM. If no packets are shown the sender has not sent any weather packets the latest 10 day(s).
| Time | Temp. | Humidity | Pressure | Rain* | Wind** | Luminosity | Snow |
|---|---|---|---|---|---|---|---|
| 1788143769 | 29.44° C | 53% | 1011.9 hPa | 0 mm | - | 0 W/m² | - |
| 1788143129 | 30° C | 52% | 1011.9 hPa | 0 mm | - | 0 W/m² | - |
| 1788142553 | 30° C | 51% | 1011.8 hPa | 0 mm | - | 0 W/m² | - |
| 1788141977 | 30.56° C | 50% | 1011.6 hPa | 0 mm | - | 0 W/m² | - |
| 1788141321 | 31.11° C | 48% | 1011.7 hPa | 0 mm | - | 0 W/m² | - |
| 1788140729 | 31.67° C | 48% | 1011.4 hPa | 0 mm | - | 0 W/m² | - |
| 1788140153 | 31.67° C | 47% | 1011.3 hPa | 0 mm | - | 0 W/m² | - |
| 1788139577 | 32.22° C | 47% | 1011.2 hPa | 0 mm | - | 0 W/m² | - |
| 1788138933 | 32.22° C | 46% | 1011.1 hPa | 0 mm | - | 0 W/m² | - |
| 1788138345 | 33.33° C | 44% | 1011.2 hPa | 0 mm | - | 0 W/m² | - |
| 1788137737 | 33.89° C | 43% | 1011.1 hPa | 0 mm | - | 4 W/m² | - |
| 1788137161 | 34.44° C | 41% | 1011.1 hPa | 0 mm | - | 9 W/m² | - |
| 1788136522 | 35° C | 40% | 1011 hPa | 0 mm | - | 17 W/m² | - |
| 1788135945 | 35.56° C | 39% | 1010.9 hPa | 0 mm | - | 26 W/m² | - |
| 1788135369 | 36.11° C | 38% | 1011 hPa | 0 mm | - | 38 W/m² | - |
| 1788134777 | 36.67° C | 38% | 1011 hPa | 0 mm | - | 43 W/m² | - |
| 1788134122 | 36.67° C | 37% | 1011.1 hPa | 0 mm | - | 52 W/m² | - |
| 1788133529 | 37.22° C | 36% | 1011.1 hPa | 0 mm | - | 67 W/m² | - |
| 1788132937 | 37.78° C | 36% | 1011.1 hPa | 0 mm | - | 129 W/m² | - |
| 1788132361 | 37.78° C | 35% | 1011.1 hPa | 0 mm | - | 134 W/m² | - |
| 1788131721 | 38.33° C | 34% | 1011.2 hPa | 0 mm | - | 166 W/m² | - |
| 1788131145 | 38.33° C | 34% | 1011.1 hPa | 0 mm | - | 200 W/m² | - |
| 1788130569 | 38.89° C | 34% | 1011.3 hPa | 0 mm | - | 227 W/m² | - |
| 1788129929 | 38.89° C | 34% | 1011.2 hPa | 0 mm | - | 262 W/m² | - |
| 1788129321 | 38.89° C | 34% | 1011.1 hPa | 0 mm | - | 290 W/m² | - |
* Rain latest hour (hover to see other rain measurements)
** Current wind speed in m/s (hover to see current wind gust speed)